Location: Christian Reformed Church
(43.0975°N, 93.8113°W)
Time: 09:49:54
(UTC+00:00)

IRS-P3 - Pass Details

Date: 16 March 2026
Orbit: 810 x 816 km, 99.0° (Epoch: 20 April)

Event Time Altitude Azimuth Distance (km) Brightness Sun altitude
Rises 11:49:38 0° 37° (NE) 3,344 8.0 -7.4°
Reaches altitude 10° 11:54:26 10° 76° (ENE) 2,402 8.3 -6.5°
Maximum altitude 11:55:27 11° 88° (E) 2,364 8.4 -6.3°
Drops below altitude 10° 11:56:28 10° 99° (E) 2,398 8.2 -6.1°
Sets 12:01:12 0° 138° (SE) 3,319 7.9 -5.2°
